Location: Cutler
(25.6150°N, 80.3110°W)
Time: 03:49:52
(UTC-04:00)

Vanguard 2 - Visible Passes

Search period start: 25 June 2018 00:00
Search period end: 05 July 2018 00:00
Orbit: 554 x 2939 km, 32.9° (Epoch: 24 June)

Date Brightness Start Highest point End Pass type
(mag) Time Alt. Az. Time Alt. Az. Time Alt. Az.
25 Jun 8.6 03:01:49 72° ENE 03:01:49 72° ENE 03:07:17 10° ENE visible
25 Jun 8.7 05:03:12 10° W 05:10:13 43° N 05:14:49 10° ENE visible
25 Jun 11.5 22:46:38 10° S 22:46:55 10° S 22:46:55 10° S visible
26 Jun 10.7 01:16:49 12° E 01:16:49 12° E 01:17:13 10° ENE visible
26 Jun 8.6 03:18:11 68° WNW 03:19:02 73° NNW 03:25:20 10° ENE visible
26 Jun 8.8 05:21:54 10° WNW 05:28:32 40° N 05:33:00 10° ENE visible
26 Jun 11.3 23:02:51 10° SSW 23:05:21 15° SSW 23:05:21 15° SSW visible
27 Jun 10.2 01:33:06 24° ENE 01:33:06 24° ENE 01:35:29 10° ENE visible
27 Jun 8.8 03:34:27 43° WNW 03:37:17 61° NNW 03:43:22 10° ENE visible
27 Jun 8.7 05:40:30 10° WNW 05:46:53 41° N 05:51:14 10° ENE visible
27 Jun 11.1 21:15:16 10° SSE 21:21:54 13° SE 21:22:31 13° SE visible
27 Jun 11.2 23:19:44 10° SSW 23:24:06 20° SSW 23:24:06 20° SSW visible
28 Jun 9.6 01:49:13 42° ENE 01:49:13 42° ENE 01:53:38 10° ENE visible
28 Jun 8.9 03:50:34 26° WNW 03:55:35 53° NNW 04:01:27 10° ENE visible
28 Jun 8.5 05:58:58 10° WNW 06:05:14 45° N 06:09:32 10° E visible
28 Jun 10.8 21:29:31 10° S 21:40:29 20° SE 21:41:41 20° SE visible
28 Jun 10.9 23:37:04 10° SW 00:03:50 - ENE 23:43:18 26° SSW visible
29 Jun 9.1 02:05:09 69° NE 02:05:09 69° NE 02:11:43 10° ENE visible
29 Jun 9.0 04:06:28 15° WNW 04:13:56 48° N 04:19:36 10° ENE visible
29 Jun 10.5 21:45:24 10° SSW 21:58:55 28° SE 22:01:26 27° SE visible
29 Jun 10.6 23:54:47 10° SW 00:19:27 19° ENE 00:21:19 10° ENE visible
30 Jun 9.1 02:20:43 65° WNW 02:22:00 71° NNW 02:29:48 10° ENE visible
30 Jun 9.0 04:23:26 10° WNW 04:32:21 47° N 04:37:49 10° ENE visible
30 Jun 10.4 22:02:02 10° SSW 22:17:18 37° SE 22:22:13 30° ESE visible
01 Jul 9.9 00:12:51 10° WSW 00:34:16 41° ENE 00:39:33 10° ENE visible
01 Jul 9.2 02:35:25 37° W 02:40:21 62° NNW 02:47:54 10° ENE visible
01 Jul 8.9 04:42:07 10° WNW 04:50:46 50° N 04:56:05 10° E visible
01 Jul 10.1 22:19:10 10° SW 22:35:37 47° SSE 22:48:00 10° E visible
02 Jul 9.4 00:31:13 10° WSW 00:47:34 90° SSE 00:57:42 10° ENE visible
02 Jul 9.3 02:46:25 10° W 02:58:45 57° N 03:06:03 10° ENE visible
02 Jul 8.6 05:00:40 10° WNW 05:09:09 57° N 05:14:21 10° E visible
02 Jul 10.9 20:28:45 10° S 20:41:39 25° SE 20:53:24 10° E visible
02 Jul 9.9 22:36:41 10° SW 22:53:56 59° SSE 23:06:32 10° ENE visible
03 Jul 9.5 00:49:49 10° WSW 01:05:56 79° NNW 01:15:50 10° ENE visible
03 Jul 9.3 03:05:21 10° W 03:17:14 54° N 03:24:16 10° ENE visible
03 Jul 8.3 05:19:07 10° WNW 05:27:28 70° NNE 05:32:34 10° E visible
03 Jul 10.7 20:45:04 10° SSW 20:59:54 33° SE 21:13:06 10° E visible
03 Jul 9.8 22:54:33 10° SW 23:12:15 71° SSE 23:24:53 10° ENE visible
04 Jul 9.6 01:08:38 10° W 01:24:21 70° NNW 01:33:59 10° ENE visible
04 Jul 9.3 03:24:12 10° WNW 03:35:44 55° N 03:42:33 10° E visible
04 Jul 7.9 05:37:32 10° WNW 05:45:40 90° SSW 05:50:40 10° ESE visible
04 Jul 10.5 21:01:58 10° SSW 21:18:07 43° SE 21:32:12 10° E visible
04 Jul 9.8 23:12:44 10° WSW 23:30:35 83° SSE 23:43:07 10° ENE visible
